Year,Month,Day,Hour,Minute,Value (Times are PST for temperature in C)
2018,04,25,00,00,9.40
2018,04,25,00,01,9.40
2018,04,25,00,02,9.40
2018,04,25,00,03,9.30
2018,04,25,00,04,9.30
2018,04,25,00,05,9.30
2018,04,25,00,06,9.20
2018,04,25,00,07,9.20
2018,04,25,00,08,9.20
2018,04,25,00,09,9.20
2018,04,25,00,10,9.20
2018,04,25,00,11,9.10
2018,04,25,00,12,9.10
2018,04,25,00,13,9.10
2018,04,25,00,14,9.10
2018,04,25,00,15,9.10
2018,04,25,00,16,9.10
2018,04,25,00,17,9.10
2018,04,25,00,18,9.10
2018,04,25,00,19,9.10
2018,04,25,00,20,9.00
2018,04,25,00,21,9.00
2018,04,25,00,22,9.00
2018,04,25,00,23,9.00
2018,04,25,00,24,8.90
2018,04,25,00,25,8.90
2018,04,25,00,26,8.90
2018,04,25,00,27,8.90
2018,04,25,00,28,8.80
2018,04,25,00,29,8.80
2018,04,25,00,30,8.80
2018,04,25,00,31,8.80
2018,04,25,00,32,8.70
2018,04,25,00,33,8.70
2018,04,25,00,34,8.70
2018,04,25,00,35,8.70
2018,04,25,00,36,8.70
2018,04,25,00,37,8.60
2018,04,25,00,38,8.60
2018,04,25,00,39,8.60
2018,04,25,00,40,8.60
2018,04,25,00,41,8.50
2018,04,25,00,42,8.50
2018,04,25,00,43,8.50
2018,04,25,00,44,8.40
2018,04,25,00,45,8.40
2018,04,25,00,46,8.30
2018,04,25,00,47,8.30
2018,04,25,00,48,8.30
2018,04,25,00,49,8.20
2018,04,25,00,50,8.20
2018,04,25,00,51,8.20
2018,04,25,00,52,8.20
2018,04,25,00,53,8.10
2018,04,25,00,54,8.10
2018,04,25,00,55,8.10
2018,04,25,00,56,8.00
2018,04,25,00,57,8.00
2018,04,25,00,58,7.90
2018,04,25,00,59,7.90
2018,04,25,01,00,7.90
2018,04,25,01,01,7.90
2018,04,25,01,02,7.80
2018,04,25,01,03,7.80
2018,04,25,01,04,7.80
2018,04,25,01,05,7.80
2018,04,25,01,06,7.80
2018,04,25,01,07,7.70
2018,04,25,01,08,7.70
2018,04,25,01,09,7.70
2018,04,25,01,10,7.70
2018,04,25,01,11,7.70
2018,04,25,01,12,7.70
2018,04,25,01,13,7.60
2018,04,25,01,14,7.60
2018,04,25,01,15,7.60
2018,04,25,01,16,7.60
2018,04,25,01,17,7.60
2018,04,25,01,18,7.60
2018,04,25,01,19,7.60
2018,04,25,01,20,7.50
2018,04,25,01,21,7.50
2018,04,25,01,22,7.50
2018,04,25,01,23,7.60
2018,04,25,01,24,7.50
2018,04,25,01,25,7.50
2018,04,25,01,26,7.50
2018,04,25,01,27,7.50
2018,04,25,01,28,7.50
2018,04,25,01,29,7.50
2018,04,25,01,30,7.50
2018,04,25,01,31,7.50
2018,04,25,01,32,7.60
2018,04,25,01,33,7.60
2018,04,25,01,34,7.60
2018,04,25,01,35,7.60
2018,04,25,01,36,7.60
2018,04,25,01,37,7.70
2018,04,25,01,38,7.70
2018,04,25,01,39,7.70
2018,04,25,01,40,7.60
2018,04,25,01,41,7.60
2018,04,25,01,42,7.60
2018,04,25,01,43,7.60
2018,04,25,01,44,7.50
2018,04,25,01,45,7.50
2018,04,25,01,46,7.40
2018,04,25,01,47,7.40
2018,04,25,01,48,7.30
2018,04,25,01,49,7.30
2018,04,25,01,50,7.30
2018,04,25,01,51,7.20
2018,04,25,01,52,7.20
2018,04,25,01,53,7.20
2018,04,25,01,54,7.20
2018,04,25,01,55,7.20
2018,04,25,01,56,7.20
2018,04,25,01,57,7.20
2018,04,25,01,58,7.10
2018,04,25,01,59,7.10
2018,04,25,02,00,7.10
2018,04,25,02,01,7.10
2018,04,25,02,02,7.10
2018,04,25,02,03,7.00
2018,04,25,02,04,7.00
2018,04,25,02,05,7.00
2018,04,25,02,06,6.90
2018,04,25,02,07,6.90
2018,04,25,02,08,6.90
2018,04,25,02,09,6.90
2018,04,25,02,10,6.80
2018,04,25,02,11,6.80
2018,04,25,02,12,6.80
2018,04,25,02,13,6.80
2018,04,25,02,14,6.70
2018,04,25,02,15,6.70
2018,04,25,02,16,6.60
2018,04,25,02,17,6.60
2018,04,25,02,18,6.50
2018,04,25,02,19,6.50
2018,04,25,02,20,6.50
2018,04,25,02,21,6.50
2018,04,25,02,22,6.50
2018,04,25,02,23,6.40
2018,04,25,02,24,6.40
2018,04,25,02,25,6.40
2018,04,25,02,26,6.40
2018,04,25,02,27,6.40
2018,04,25,02,28,6.30
2018,04,25,02,29,6.30
2018,04,25,02,30,6.30
2018,04,25,02,31,6.30
2018,04,25,02,32,6.30
2018,04,25,02,33,6.30
2018,04,25,02,34,6.30
2018,04,25,02,35,6.30
2018,04,25,02,36,6.30
2018,04,25,02,37,6.30
2018,04,25,02,38,6.20
2018,04,25,02,39,6.20
2018,04,25,02,40,6.20
2018,04,25,02,41,6.20
2018,04,25,02,42,6.10
2018,04,25,02,43,6.10
2018,04,25,02,44,6.20
2018,04,25,02,45,6.20
2018,04,25,02,46,6.20
2018,04,25,02,47,6.20
2018,04,25,02,48,6.20
2018,04,25,02,49,6.20
2018,04,25,02,50,6.20
2018,04,25,02,51,6.20
2018,04,25,02,52,6.20
2018,04,25,02,53,6.20
2018,04,25,02,54,6.10
2018,04,25,02,55,6.10
2018,04,25,02,56,6.10
2018,04,25,02,57,6.10
2018,04,25,02,58,6.10
2018,04,25,02,59,6.10
2018,04,25,03,00,6.00
2018,04,25,03,01,6.00
2018,04,25,03,02,6.00
2018,04,25,03,03,6.00
2018,04,25,03,04,6.00
2018,04,25,03,05,6.00
2018,04,25,03,06,5.90
2018,04,25,03,07,5.90
2018,04,25,03,08,5.90
2018,04,25,03,09,5.80
2018,04,25,03,10,5.80
2018,04,25,03,11,5.80
2018,04,25,03,12,5.80
2018,04,25,03,13,5.80
2018,04,25,03,14,5.80
2018,04,25,03,15,5.70
2018,04,25,03,16,5.70
2018,04,25,03,17,5.70
2018,04,25,03,18,5.60
2018,04,25,03,19,5.60
2018,04,25,03,20,5.60
2018,04,25,03,21,5.60
2018,04,25,03,22,5.50
2018,04,25,03,23,5.50
2018,04,25,03,24,5.50
2018,04,25,03,25,5.40
2018,04,25,03,26,5.40
2018,04,25,03,27,5.40
2018,04,25,03,28,5.40
2018,04,25,03,29,5.40
2018,04,25,03,30,5.40
2018,04,25,03,31,5.30
2018,04,25,03,32,5.30
2018,04,25,03,33,5.30
2018,04,25,03,34,5.30
2018,04,25,03,35,5.30
2018,04,25,03,36,5.30
2018,04,25,03,37,5.30
2018,04,25,03,38,5.30
2018,04,25,03,39,5.20
2018,04,25,03,40,5.20
2018,04,25,03,41,5.20
2018,04,25,03,42,5.20
2018,04,25,03,43,5.20
2018,04,25,03,44,5.20
2018,04,25,03,45,5.20
2018,04,25,03,46,5.20
2018,04,25,03,47,5.10
2018,04,25,03,48,5.10
2018,04,25,03,49,5.10
2018,04,25,03,50,5.20
2018,04,25,03,51,5.20
2018,04,25,03,52,5.20
2018,04,25,03,53,5.10
2018,04,25,03,54,5.10
2018,04,25,03,55,5.10
2018,04,25,03,56,5.10
2018,04,25,03,57,5.10
2018,04,25,03,58,5.10
2018,04,25,03,59,5.10
2018,04,25,04,00,5.10
2018,04,25,04,01,5.10
2018,04,25,04,02,5.10
2018,04,25,04,03,5.00
2018,04,25,04,04,5.00
2018,04,25,04,05,5.00
2018,04,25,04,06,4.90
2018,04,25,04,07,4.90
2018,04,25,04,08,4.90
2018,04,25,04,09,4.90
2018,04,25,04,10,4.90
2018,04,25,04,11,4.90
2018,04,25,04,12,4.90
2018,04,25,04,13,4.90
2018,04,25,04,14,4.90
2018,04,25,04,15,4.90
2018,04,25,04,16,4.90
2018,04,25,04,17,4.90
2018,04,25,04,18,4.80
2018,04,25,04,19,4.80
2018,04,25,04,20,4.80
2018,04,25,04,21,4.80
2018,04,25,04,22,4.70
2018,04,25,04,23,4.70
2018,04,25,04,24,4.70
2018,04,25,04,25,4.70
2018,04,25,04,26,4.70
2018,04,25,04,27,4.70
2018,04,25,04,28,4.70
2018,04,25,04,29,4.70
2018,04,25,04,30,4.70
2018,04,25,04,31,4.60
2018,04,25,04,32,4.60
2018,04,25,04,33,4.60
2018,04,25,04,34,4.60
2018,04,25,04,35,4.60
2018,04,25,04,36,4.60
2018,04,25,04,37,4.60
2018,04,25,04,38,4.60
2018,04,25,04,39,4.60
2018,04,25,04,40,4.60
2018,04,25,04,41,4.70
2018,04,25,04,42,4.70
2018,04,25,04,43,4.70
2018,04,25,04,44,4.70
2018,04,25,04,45,4.70
2018,04,25,04,46,4.70
2018,04,25,04,47,4.70
2018,04,25,04,48,4.70
2018,04,25,04,49,4.70
2018,04,25,04,50,4.70
2018,04,25,04,51,4.70
2018,04,25,04,52,4.70
2018,04,25,04,53,4.70
2018,04,25,04,54,4.60
2018,04,25,04,55,4.60
2018,04,25,04,56,4.60
2018,04,25,04,57,4.60
2018,04,25,04,58,4.50
2018,04,25,04,59,4.50
2018,04,25,05,00,4.50
2018,04,25,05,01,4.40
2018,04,25,05,02,4.40
2018,04,25,05,03,4.40
2018,04,25,05,04,4.40
2018,04,25,05,05,4.30
2018,04,25,05,06,4.30
2018,04,25,05,07,4.30
2018,04,25,05,08,4.20
2018,04,25,05,09,4.20
2018,04,25,05,10,4.20
2018,04,25,05,11,4.20
2018,04,25,05,12,4.10
2018,04,25,05,13,4.10
2018,04,25,05,14,4.10
2018,04,25,05,15,4.10
2018,04,25,05,16,4.00
2018,04,25,05,17,4.00
2018,04,25,05,18,4.00
2018,04,25,05,19,4.00
2018,04,25,05,20,4.00
2018,04,25,05,21,3.90
2018,04,25,05,22,3.90
2018,04,25,05,23,3.90
2018,04,25,05,24,3.90
2018,04,25,05,25,3.90
2018,04,25,05,26,3.90
2018,04,25,05,27,3.90
2018,04,25,05,28,3.80
2018,04,25,05,29,3.80
2018,04,25,05,30,3.80
2018,04,25,05,31,3.80
2018,04,25,05,32,3.80
2018,04,25,05,33,3.80
2018,04,25,05,34,3.80
2018,04,25,05,35,3.80
2018,04,25,05,36,3.80
2018,04,25,05,37,3.80
2018,04,25,05,38,3.80
2018,04,25,05,39,3.80
2018,04,25,05,40,3.80
2018,04,25,05,41,3.80
2018,04,25,05,42,3.80
2018,04,25,05,43,3.90
2018,04,25,05,44,3.80
2018,04,25,05,45,3.80
2018,04,25,05,46,3.80
2018,04,25,05,47,3.80
2018,04,25,05,48,3.80
2018,04,25,05,49,3.90
2018,04,25,05,50,4.00
2018,04,25,05,51,4.00
2018,04,25,05,52,4.00
2018,04,25,05,53,4.10
2018,04,25,05,54,4.10
2018,04,25,05,55,4.10
2018,04,25,05,56,4.10
2018,04,25,05,57,4.10
2018,04,25,05,58,4.10
2018,04,25,05,59,4.10
2018,04,25,06,00,4.10
2018,04,25,06,01,4.10
2018,04,25,06,02,4.10
2018,04,25,06,03,4.10
2018,04,25,06,04,4.10
2018,04,25,06,05,4.10
2018,04,25,06,06,4.10
2018,04,25,06,07,4.10
2018,04,25,06,08,4.10
2018,04,25,06,09,4.10
2018,04,25,06,10,4.10
2018,04,25,06,11,4.10
2018,04,25,06,12,4.10
2018,04,25,06,13,4.10
2018,04,25,06,14,4.00
2018,04,25,06,15,4.00
2018,04,25,06,16,4.00
2018,04,25,06,17,3.90
2018,04,25,06,18,3.90
2018,04,25,06,19,3.90
2018,04,25,06,20,3.90
2018,04,25,06,21,3.80
2018,04,25,06,22,3.80
2018,04,25,06,23,3.80
2018,04,25,06,24,3.80
2018,04,25,06,25,3.80
2018,04,25,06,26,3.80
2018,04,25,06,27,3.70
2018,04,25,06,28,3.70
2018,04,25,06,29,3.70
2018,04,25,06,30,3.70
2018,04,25,06,31,3.70
2018,04,25,06,32,3.70
2018,04,25,06,33,3.70
2018,04,25,06,34,3.70
2018,04,25,06,35,3.70
2018,04,25,06,36,3.70
2018,04,25,06,37,3.70
2018,04,25,06,38,3.70
2018,04,25,06,39,3.70
2018,04,25,06,40,3.70
2018,04,25,06,41,3.60
2018,04,25,06,42,3.60
2018,04,25,06,43,3.60
2018,04,25,06,44,3.60
2018,04,25,06,45,3.60
2018,04,25,06,46,3.60
2018,04,25,06,47,3.60
2018,04,25,06,48,3.60
2018,04,25,06,49,3.60
2018,04,25,06,50,3.60
2018,04,25,06,51,3.60
2018,04,25,06,52,3.60
2018,04,25,06,53,3.60
2018,04,25,06,54,3.60
2018,04,25,06,55,3.70
2018,04,25,06,56,3.70
2018,04,25,06,57,3.70
2018,04,25,06,58,3.70
2018,04,25,06,59,3.70
2018,04,25,07,00,3.70
2018,04,25,07,01,3.70
2018,04,25,07,02,3.80
2018,04,25,07,03,3.80
2018,04,25,07,04,3.80
2018,04,25,07,05,3.80
2018,04,25,07,06,3.90
2018,04,25,07,07,3.90
2018,04,25,07,08,4.00
2018,04,25,07,09,4.00
2018,04,25,07,10,4.10
2018,04,25,07,11,4.10
2018,04,25,07,12,4.20
2018,04,25,07,13,4.20
2018,04,25,07,14,4.30
2018,04,25,07,15,4.30
2018,04,25,07,16,4.40
2018,04,25,07,17,4.40
2018,04,25,07,18,4.50
2018,04,25,07,19,4.50
2018,04,25,07,20,4.50
2018,04,25,07,21,4.60
2018,04,25,07,22,4.60
2018,04,25,07,23,4.60
2018,04,25,07,24,4.60
2018,04,25,07,25,4.60
2018,04,25,07,26,4.70
2018,04,25,07,27,4.70
2018,04,25,07,28,4.70
2018,04,25,07,29,4.70
2018,04,25,07,30,4.70
2018,04,25,07,31,4.80
2018,04,25,07,32,4.80
2018,04,25,07,33,4.80
2018,04,25,07,34,4.80
2018,04,25,07,35,4.90
2018,04,25,07,36,4.90
2018,04,25,07,37,4.90
2018,04,25,07,38,5.00
2018,04,25,07,39,5.00
2018,04,25,07,40,5.00
2018,04,25,07,41,5.10
2018,04,25,07,42,5.10
2018,04,25,07,43,5.10
2018,04,25,07,44,5.20
2018,04,25,07,45,5.20
2018,04,25,07,46,5.20
2018,04,25,07,47,5.30
2018,04,25,07,48,5.30
2018,04,25,07,49,5.40
2018,04,25,07,50,5.40
2018,04,25,07,51,5.50
2018,04,25,07,52,5.50
2018,04,25,07,53,5.60
2018,04,25,07,54,5.60
2018,04,25,07,55,5.70
2018,04,25,07,56,5.80
2018,04,25,07,57,5.80
2018,04,25,07,58,5.80
2018,04,25,07,59,5.90
2018,04,25,08,00,5.90
2018,04,25,08,01,6.00
2018,04,25,08,02,6.00
2018,04,25,08,03,6.10
2018,04,25,08,04,6.20
2018,04,25,08,05,6.30
2018,04,25,08,06,6.30
2018,04,25,08,07,6.40
2018,04,25,08,08,6.40
2018,04,25,08,09,6.50
2018,04,25,08,10,6.50
2018,04,25,08,11,6.60
2018,04,25,08,12,6.70
2018,04,25,08,13,6.70
2018,04,25,08,14,6.80
2018,04,25,08,15,6.80
2018,04,25,08,16,6.90
2018,04,25,08,17,7.00
2018,04,25,08,18,7.00
2018,04,25,08,19,7.10
2018,04,25,08,20,7.20
2018,04,25,08,21,7.30
2018,04,25,08,22,7.40
2018,04,25,08,23,7.50
2018,04,25,08,24,7.60
2018,04,25,08,25,7.70
2018,04,25,08,26,7.80
2018,04,25,08,27,8.00
2018,04,25,08,28,8.10
2018,04,25,08,29,8.30
2018,04,25,08,30,8.30
2018,04,25,08,31,8.40
2018,04,25,08,32,8.50
2018,04,25,08,33,8.60
2018,04,25,08,34,8.70
2018,04,25,08,35,8.70
2018,04,25,08,36,8.80
2018,04,25,08,37,8.90
2018,04,25,08,38,9.00
2018,04,25,08,39,9.10
2018,04,25,08,40,9.20
2018,04,25,08,41,9.20
2018,04,25,08,42,9.20
2018,04,25,08,43,9.20
2018,04,25,08,44,9.30
2018,04,25,08,45,9.30
2018,04,25,08,46,9.30
2018,04,25,08,47,9.20
2018,04,25,08,48,9.30
2018,04,25,08,49,9.30
2018,04,25,08,50,9.30
2018,04,25,08,51,9.30
2018,04,25,08,52,9.40
2018,04,25,08,53,9.30
2018,04,25,08,54,9.40
2018,04,25,08,55,9.40
2018,04,25,08,56,9.40
2018,04,25,08,57,9.50
2018,04,25,08,58,9.50
2018,04,25,08,59,9.60
2018,04,25,09,00,9.60
2018,04,25,09,01,9.70
2018,04,25,09,02,9.70
2018,04,25,09,03,9.80
2018,04,25,09,04,9.90
2018,04,25,09,05,10.00
2018,04,25,09,06,10.10
2018,04,25,09,07,10.10
2018,04,25,09,08,10.20
2018,04,25,09,09,10.30
2018,04,25,09,10,10.40
2018,04,25,09,11,10.50
2018,04,25,09,12,10.60
2018,04,25,09,13,10.70
2018,04,25,09,14,10.80
2018,04,25,09,15,10.90
2018,04,25,09,16,11.00
2018,04,25,09,17,11.10
2018,04,25,09,18,11.20
2018,04,25,09,19,11.30
2018,04,25,09,20,11.40
2018,04,25,09,21,11.50
2018,04,25,09,22,11.50
2018,04,25,09,23,11.60
2018,04,25,09,24,11.60
2018,04,25,09,25,11.60
2018,04,25,09,26,11.70
2018,04,25,09,27,11.70
2018,04,25,09,28,11.70
2018,04,25,09,29,11.70
2018,04,25,09,30,11.70
2018,04,25,09,31,11.70
2018,04,25,09,32,11.80
2018,04,25,09,33,11.90
2018,04,25,09,34,12.00
2018,04,25,09,35,12.00
2018,04,25,09,36,12.00
2018,04,25,09,37,12.10
2018,04,25,09,38,12.10
2018,04,25,09,39,12.20
2018,04,25,09,40,12.40
2018,04,25,09,41,12.50
2018,04,25,09,42,12.60
2018,04,25,09,43,12.70
2018,04,25,09,44,12.80
2018,04,25,09,45,12.80
2018,04,25,09,46,12.80
2018,04,25,09,47,12.90
2018,04,25,09,48,13.00
2018,04,25,09,49,13.00
2018,04,25,09,50,13.20
2018,04,25,09,51,13.30
2018,04,25,09,52,13.40
2018,04,25,09,53,13.50
2018,04,25,09,54,13.60
2018,04,25,09,55,13.70
2018,04,25,09,56,13.70
2018,04,25,09,57,13.80
2018,04,25,09,58,13.80
2018,04,25,09,59,13.90
2018,04,25,10,00,14.00
2018,04,25,10,01,14.10
2018,04,25,10,02,14.20
2018,04,25,10,03,14.20
2018,04,25,10,04,14.30
2018,04,25,10,05,14.50
2018,04,25,10,06,14.50
2018,04,25,10,07,14.60
2018,04,25,10,08,14.60
2018,04,25,10,09,14.70
2018,04,25,10,10,14.70
2018,04,25,10,11,14.80
2018,04,25,10,12,14.80
2018,04,25,10,13,14.80
2018,04,25,10,14,14.90
2018,04,25,10,15,14.90
2018,04,25,10,16,14.90
2018,04,25,10,17,14.90
2018,04,25,10,18,15.00
2018,04,25,10,19,15.00
2018,04,25,10,20,15.10
2018,04,25,10,21,15.10
2018,04,25,10,22,15.20
2018,04,25,10,23,15.20
2018,04,25,10,24,15.30
2018,04,25,10,25,15.40
2018,04,25,10,26,15.40
2018,04,25,10,27,15.40
2018,04,25,10,28,15.50
2018,04,25,10,29,15.60
2018,04,25,10,30,15.70
2018,04,25,10,31,15.70
2018,04,25,10,32,15.80
2018,04,25,10,33,15.90
2018,04,25,10,34,16.00
2018,04,25,10,35,16.10
2018,04,25,10,36,16.20
2018,04,25,10,37,16.30
2018,04,25,10,38,16.40
2018,04,25,10,39,16.50
2018,04,25,10,40,16.60
2018,04,25,10,41,16.60
2018,04,25,10,42,16.70
2018,04,25,10,43,16.70
2018,04,25,10,44,16.70
2018,04,25,10,45,16.70
2018,04,25,10,46,16.80
2018,04,25,10,47,16.80
2018,04,25,10,48,16.80
2018,04,25,10,49,16.90
2018,04,25,10,50,17.00
2018,04,25,10,51,17.10
2018,04,25,10,52,17.20
2018,04,25,10,53,17.30
2018,04,25,10,54,17.30
2018,04,25,10,55,17.30
2018,04,25,10,56,17.40
2018,04,25,10,57,17.50
2018,04,25,10,58,17.60
2018,04,25,10,59,17.70
2018,04,25,11,00,17.70
2018,04,25,11,01,17.80
2018,04,25,11,02,17.80
2018,04,25,11,03,17.90
2018,04,25,11,04,17.90
2018,04,25,11,05,18.00
2018,04,25,11,06,18.10
2018,04,25,11,07,18.20
2018,04,25,11,08,18.40
2018,04,25,11,09,18.50
2018,04,25,11,10,18.70
2018,04,25,11,11,18.80
2018,04,25,11,12,18.90
2018,04,25,11,13,18.90
2018,04,25,11,14,18.80
2018,04,25,11,15,18.80
2018,04,25,11,16,18.80
2018,04,25,11,17,18.70
2018,04,25,11,18,18.60
2018,04,25,11,19,18.50
2018,04,25,11,20,18.40
2018,04,25,11,21,18.40
2018,04,25,11,22,18.30
2018,04,25,11,23,18.30
2018,04,25,11,24,18.40
2018,04,25,11,25,18.40
2018,04,25,11,26,18.40
2018,04,25,11,27,18.50
2018,04,25,11,28,18.50
2018,04,25,11,29,18.60
2018,04,25,11,30,18.60
2018,04,25,11,31,18.60
2018,04,25,11,32,18.60
2018,04,25,11,33,18.60
2018,04,25,11,34,18.70
2018,04,25,11,35,18.70
2018,04,25,11,36,18.80
2018,04,25,11,37,18.80
2018,04,25,11,38,18.80
2018,04,25,11,39,18.80
2018,04,25,11,40,18.80
2018,04,25,11,41,18.80
2018,04,25,11,42,18.90
2018,04,25,11,43,19.00
2018,04,25,11,44,19.00
2018,04,25,11,45,19.00
2018,04,25,11,46,18.90
2018,04,25,11,47,18.90
2018,04,25,11,48,19.00
2018,04,25,11,49,19.00
2018,04,25,11,50,19.10
2018,04,25,11,51,19.20
2018,04,25,11,52,19.30
2018,04,25,11,53,19.30
2018,04,25,11,54,19.40
2018,04,25,11,55,19.50
2018,04,25,11,56,19.60
2018,04,25,11,57,19.70
2018,04,25,11,58,19.70
2018,04,25,11,59,19.80
2018,04,25,12,00,19.80
2018,04,25,12,01,19.80
2018,04,25,12,02,19.90
2018,04,25,12,03,19.80
2018,04,25,12,04,19.80
2018,04,25,12,05,19.80
2018,04,25,12,06,19.80
2018,04,25,12,07,19.80
2018,04,25,12,08,19.80
2018,04,25,12,09,19.80
2018,04,25,12,10,19.70
2018,04,25,12,11,19.70
2018,04,25,12,12,19.60
2018,04,25,12,13,19.60
2018,04,25,12,14,19.60
2018,04,25,12,15,19.70
2018,04,25,12,16,19.80
2018,04,25,12,17,19.90
2018,04,25,12,18,20.00
2018,04,25,12,19,20.10
2018,04,25,12,20,20.20
2018,04,25,12,21,20.20
2018,04,25,12,22,20.20
2018,04,25,12,23,20.30
2018,04,25,12,24,20.30
2018,04,25,12,25,20.40
2018,04,25,12,26,20.40
2018,04,25,12,27,20.40
2018,04,25,12,28,20.30
2018,04,25,12,29,20.40
2018,04,25,12,30,20.40
2018,04,25,12,31,20.40
2018,04,25,12,32,20.40
2018,04,25,12,33,20.40
2018,04,25,12,34,20.40
2018,04,25,12,35,20.50
2018,04,25,12,36,20.60
2018,04,25,12,37,20.50
2018,04,25,12,38,20.40
2018,04,25,12,39,20.30
2018,04,25,12,40,20.30
2018,04,25,12,41,20.40
2018,04,25,12,42,20.40
2018,04,25,12,43,20.40
2018,04,25,12,44,20.40
2018,04,25,12,45,20.50
2018,04,25,12,46,20.60
2018,04,25,12,47,20.60
2018,04,25,12,48,20.70
2018,04,25,12,49,20.80
2018,04,25,12,50,20.80
2018,04,25,12,51,20.70
2018,04,25,12,52,20.70
2018,04,25,12,53,20.70
2018,04,25,12,54,20.70
2018,04,25,12,55,20.70
2018,04,25,12,56,20.70
2018,04,25,12,57,20.80
2018,04,25,12,58,20.80
2018,04,25,12,59,20.90
2018,04,25,13,00,21.00
2018,04,25,13,01,21.10
2018,04,25,13,02,21.20
2018,04,25,13,03,21.20
2018,04,25,13,04,21.20
2018,04,25,13,05,21.20
2018,04,25,13,06,21.20
2018,04,25,13,07,21.30
2018,04,25,13,08,21.30
2018,04,25,13,09,21.30
2018,04,25,13,10,21.30
2018,04,25,13,11,21.30
2018,04,25,13,12,21.20
2018,04,25,13,13,21.30
2018,04,25,13,14,21.30
2018,04,25,13,15,21.30
2018,04,25,13,16,21.40
2018,04,25,13,17,21.40
2018,04,25,13,18,21.40
2018,04,25,13,19,21.40
2018,04,25,13,20,21.50
2018,04,25,13,21,21.50
2018,04,25,13,22,21.60
2018,04,25,13,23,21.60
2018,04,25,13,24,21.60
2018,04,25,13,25,21.60
2018,04,25,13,26,21.70
2018,04,25,13,27,21.70
2018,04,25,13,28,21.80
2018,04,25,13,29,21.80
2018,04,25,13,30,21.90
2018,04,25,13,31,21.90
2018,04,25,13,32,21.90
2018,04,25,13,33,22.00
2018,04,25,13,34,22.10
2018,04,25,13,35,22.10
2018,04,25,13,36,22.20
2018,04,25,13,37,22.30
2018,04,25,13,38,22.40
2018,04,25,13,39,22.40
2018,04,25,13,40,22.40
2018,04,25,13,41,22.40
2018,04,25,13,42,22.30
2018,04,25,13,43,22.30
2018,04,25,13,44,22.30
2018,04,25,13,45,22.30
2018,04,25,13,46,22.30
2018,04,25,13,47,22.40
2018,04,25,13,48,22.40
2018,04,25,13,49,22.30
2018,04,25,13,50,22.30
2018,04,25,13,51,22.30
2018,04,25,13,52,22.30
2018,04,25,13,53,22.30
2018,04,25,13,54,22.40
2018,04,25,13,55,22.40
2018,04,25,13,56,22.40
2018,04,25,13,57,22.30
2018,04,25,13,58,22.30
2018,04,25,13,59,22.30
2018,04,25,14,00,22.40
2018,04,25,14,01,22.40
2018,04,25,14,02,22.50
2018,04,25,14,03,22.60
2018,04,25,14,04,22.80
2018,04,25,14,05,22.90
2018,04,25,14,06,22.90
2018,04,25,14,07,22.90
2018,04,25,14,08,22.90
2018,04,25,14,09,22.90
2018,04,25,14,10,22.90
2018,04,25,14,11,22.90
2018,04,25,14,12,23.00
2018,04,25,14,13,23.00
2018,04,25,14,14,23.10
2018,04,25,14,15,23.10
2018,04,25,14,16,23.00
2018,04,25,14,17,23.00
2018,04,25,14,18,23.10
2018,04,25,14,19,23.10
2018,04,25,14,20,23.20
2018,04,25,14,21,23.20
2018,04,25,14,22,23.30
2018,04,25,14,23,23.30
2018,04,25,14,24,23.20
2018,04,25,14,25,23.20
2018,04,25,14,26,23.20
2018,04,25,14,27,23.20
2018,04,25,14,28,23.20
2018,04,25,14,29,23.20
2018,04,25,14,30,23.30
2018,04,25,14,31,23.30
2018,04,25,14,32,23.40
2018,04,25,14,33,23.30
2018,04,25,14,34,23.30
2018,04,25,14,35,23.30
2018,04,25,14,36,23.30
2018,04,25,14,37,23.20
2018,04,25,14,38,23.20
2018,04,25,14,39,23.20
2018,04,25,14,40,23.20
2018,04,25,14,41,23.20
2018,04,25,14,42,23.30
2018,04,25,14,43,23.40
2018,04,25,14,44,23.40
2018,04,25,14,45,23.50
2018,04,25,14,46,23.50
2018,04,25,14,47,23.50
2018,04,25,14,48,23.50
2018,04,25,14,49,23.50
2018,04,25,14,50,23.40
2018,04,25,14,51,23.50
2018,04,25,14,52,23.50
2018,04,25,14,53,23.50
2018,04,25,14,54,23.50
2018,04,25,14,55,23.50
2018,04,25,14,56,23.40
2018,04,25,14,57,23.40
2018,04,25,14,58,23.40
2018,04,25,14,59,23.40
2018,04,25,15,00,23.40
2018,04,25,15,01,23.40
2018,04,25,15,02,23.40
2018,04,25,15,03,23.40
2018,04,25,15,04,23.40
2018,04,25,15,05,23.50
2018,04,25,15,06,23.60
2018,04,25,15,07,23.70
2018,04,25,15,08,23.80
2018,04,25,15,09,23.80
2018,04,25,15,10,23.80
2018,04,25,15,11,23.80
2018,04,25,15,12,23.80
2018,04,25,15,13,23.70
2018,04,25,15,14,23.70
2018,04,25,15,15,23.70
2018,04,25,15,16,23.80
2018,04,25,15,17,23.80
2018,04,25,15,18,23.90
2018,04,25,15,19,23.90
2018,04,25,15,20,23.80
2018,04,25,15,21,23.80
2018,04,25,15,22,23.70
2018,04,25,15,23,23.60
2018,04,25,15,24,23.50
2018,04,25,15,25,23.50
2018,04,25,15,26,23.50
2018,04,25,15,27,23.50
2018,04,25,15,28,23.50
2018,04,25,15,29,23.50
2018,04,25,15,30,23.50
2018,04,25,15,31,23.60
2018,04,25,15,32,23.60
2018,04,25,15,33,23.60
2018,04,25,15,34,23.60
2018,04,25,15,35,23.60
2018,04,25,15,36,23.60
2018,04,25,15,37,23.60
2018,04,25,15,38,23.60
2018,04,25,15,39,23.60
2018,04,25,15,40,23.60
2018,04,25,15,41,23.70
2018,04,25,15,42,23.70
2018,04,25,15,43,23.70
2018,04,25,15,44,23.70
2018,04,25,15,45,23.80
2018,04,25,15,46,23.80
2018,04,25,15,47,23.80
2018,04,25,15,48,23.80
2018,04,25,15,49,23.80
2018,04,25,15,50,23.80
2018,04,25,15,51,23.80
2018,04,25,15,52,23.80
2018,04,25,15,53,23.80
2018,04,25,15,54,23.80
2018,04,25,15,55,23.90
2018,04,25,15,56,23.90
2018,04,25,15,57,23.90
2018,04,25,15,58,23.90
2018,04,25,15,59,24.00
2018,04,25,16,00,24.10
2018,04,25,16,01,24.10
2018,04,25,16,02,24.20
2018,04,25,16,03,24.20
2018,04,25,16,04,24.20
2018,04,25,16,05,24.20
2018,04,25,16,06,24.20
2018,04,25,16,07,24.20
2018,04,25,16,08,24.20
2018,04,25,16,09,24.20
2018,04,25,16,10,24.20
2018,04,25,16,11,24.20
2018,04,25,16,12,24.20
2018,04,25,16,13,24.20
2018,04,25,16,14,24.20
2018,04,25,16,15,24.20
2018,04,25,16,16,24.30
2018,04,25,16,17,24.40
2018,04,25,16,18,24.40
2018,04,25,16,19,24.40
2018,04,25,16,20,24.40
2018,04,25,16,21,24.40
2018,04,25,16,22,24.50
2018,04,25,16,23,24.50
2018,04,25,16,24,24.60
2018,04,25,16,25,24.70
2018,04,25,16,26,24.70
2018,04,25,16,27,24.80
2018,04,25,16,28,24.80
2018,04,25,16,29,24.70
2018,04,25,16,30,24.70
2018,04,25,16,31,24.70
2018,04,25,16,32,24.70
2018,04,25,16,33,24.70
2018,04,25,16,34,24.70
2018,04,25,16,35,24.70
2018,04,25,16,36,24.70
2018,04,25,16,37,24.70
2018,04,25,16,38,24.70
2018,04,25,16,39,24.70
2018,04,25,16,40,24.70
2018,04,25,16,41,24.60
2018,04,25,16,42,24.60
2018,04,25,16,43,24.60
2018,04,25,16,44,24.50
2018,04,25,16,45,24.50
2018,04,25,16,46,24.50
2018,04,25,16,47,24.50
2018,04,25,16,48,24.50
2018,04,25,16,49,24.40
2018,04,25,16,50,24.50
2018,04,25,16,51,24.50
2018,04,25,16,52,24.40
2018,04,25,16,53,24.40
2018,04,25,16,54,24.50
2018,04,25,16,55,24.50
2018,04,25,16,56,24.50
2018,04,25,16,57,24.50
2018,04,25,16,58,24.50
2018,04,25,16,59,24.50
2018,04,25,17,00,24.50
2018,04,25,17,01,24.50
2018,04,25,17,02,24.40
2018,04,25,17,03,24.40
2018,04,25,17,04,24.40
2018,04,25,17,05,24.30
2018,04,25,17,06,24.30
2018,04,25,17,07,24.30
2018,04,25,17,08,24.40
2018,04,25,17,09,24.40
2018,04,25,17,10,24.40
2018,04,25,17,11,24.40
2018,04,25,17,12,24.40
2018,04,25,17,13,24.40
2018,04,25,17,14,24.30
2018,04,25,17,15,24.40
2018,04,25,17,16,24.40
2018,04,25,17,17,24.30
2018,04,25,17,18,24.30
2018,04,25,17,19,24.30
2018,04,25,17,20,24.30
2018,04,25,17,21,24.30
2018,04,25,17,22,24.30
2018,04,25,17,23,24.30
2018,04,25,17,24,24.30
2018,04,25,17,25,24.30
2018,04,25,17,26,24.20
2018,04,25,17,27,24.20
2018,04,25,17,28,24.20
2018,04,25,17,29,24.20
2018,04,25,17,30,24.10
2018,04,25,17,31,24.10
2018,04,25,17,32,24.10
2018,04,25,17,33,24.10
2018,04,25,17,34,24.10
2018,04,25,17,35,24.10
2018,04,25,17,36,24.20
2018,04,25,17,37,24.20
2018,04,25,17,38,24.20
2018,04,25,17,39,24.20
2018,04,25,17,40,24.20
2018,04,25,17,41,24.20
2018,04,25,17,42,24.20
2018,04,25,17,43,24.20